#timestamp,LO_Frequency,Hit,StdDev 
1629565215.7,286047000.0,N
1629565235.6,286047002.3,Y
1629565255.4,286047001.1,P
1629565275.2,286047000.4,P
1629565295.1,286047000.9,N
1629565296.0,286047000.9,N
1629565315.8,286047001.1,Y
1629565335.6,286046998.5,P
1629565355.5,286046998.4,N
1629565375.3,286046998.7,N
1629565395.1,286047000.9,N
1629565415.9,286046998.1,N
1629565435.7,286046998.5,N
1629565455.5,286047000.7,N
1629565475.4,286046998.3,N
1629565495.2,286046999.5,N
1629565515.0,286046999.3,N
1629565515.9,286046999.3,N
1629565535.8,286046996.5,Y
1629565555.6,286046999.6,P
1629565575.4,286046999.3,P
1629565595.3,286046998.7,P
1629565615.1,286047000.8,N
1629565616.0,286047000.8,N
1629565635.8,286047000.3,N
1629565655.7,286046999.4,N
1629565675.5,286046998.9,N
1629565695.3,286046998.7,N
1629565715.2,286046999.0,N
1629565735.9,286046998.9,N
1629565755.7,286046998.8,N
1629565775.6,286046998.4,N
1629565795.4,286046998.4,N
1629565815.2,286046996.5,Y
1629565835.1,286046999.5,P
1629565836.0,286046999.5,P
1629565855.8,286046998.5,P
1629565875.6,286047001.1,N
1629565895.5,286047000.1,N
1629565915.3,286047001.0,N
1629565935.1,286047000.0,N
1629565955.9,286046999.7,N
1629565975.7,286047002.4,Y
1629565995.5,286047002.0,P
1629566015.4,286047001.4,N
1629566035.2,286047003.6,P
1629566055.0,286047005.5,Y
1629566055.9,286047005.5,P
1629566075.8,286047011.9,P
1629566095.6,286047001.4,N
1629566115.4,286047003.8,N
1629566135.3,286047005.5,N
1629566155.1,286047004.6,N
1629566156.0,286047004.6,N
1629566175.8,286047003.3,N
1629566195.7,286047002.8,N
1629566215.5,286047001.1,N
1629566235.3,286046998.4,N
1629566255.2,286046996.8,N
1629566275.9,286046997.2,N
1629566295.7,286046996.8,N
1629566315.6,286046998.9,N
1629566335.4,286046998.9,N
1629566355.2,286046998.9,N
1629566375.0,286047000.5,N
1629566376.0,286047000.5,N
1629566395.8,286046998.7,N
1629566415.6,286047000.9,N
1629566435.4,286047000.2,N
1629566455.3,286047002.5,N
1629566475.1,286047001.3,N
1629566495.8,286047002.4,N
1629566515.7,286047001.1,N
1629566535.5,286047002.0,N
1629566555.3,286047002.2,N
1629566575.2,286046999.3,N
1629566595.0,286046997.1,N
1629566595.9,286046997.1,N
1629566615.7,286046994.9,N
1629566635.6,286046995.5,N
1629566655.4,286046995.8,N
1629566675.2,286046996.3,N
1629566695.1,286046994.5,N
1629566696.0,286046994.5,N
1629566715.8,286046994.6,N
1629566735.6,286046991.8,Y
1629566755.5,286046996.3,P
1629566775.3,286046996.3,P
1629566795.1,286046993.9,P
1629566815.9,286046993.9,Y
1629566835.7,286046996.5,P
1629566855.5,286046999.1,P
1629566875.4,286046999.0,N
1629566895.2,286046997.0,N
1629566915.0,286046996.9,N
1629566915.9,286046996.9,N
1629566935.8,286046998.3,N
1629566955.6,286046998.8,N
1629566975.4,286046999.1,N
1629566995.3,286046998.7,N
1629567015.1,286046999.1,N
1629567035.8,286046999.6,N
1629567055.7,286046996.8,N
1629567075.5,286046996.7,N
1629567095.3,286046995.1,Y
1629567115.2,286046996.6,P
1629567135.0,286046999.2,N
1629567135.9,286046999.2,N
1629567155.7,286046999.4,N
1629567175.6,286046999.6,N
1629567195.4,286046996.5,Y
1629567215.2,286047000.5,P
1629567235.1,286047002.4,N
1629567236.0,286047002.4,N
1629567255.8,286047000.7,N
1629567275.6,286046999.8,N
1629567295.5,286047001.1,N
1629567315.3,286047000.6,N
1629567335.1,286047002.8,N
1629567355.9,286047000.0,N
1629567375.7,286047000.4,N
1629567395.5,286047000.9,N
1629567415.4,286047000.2,N
1629567435.2,286047000.2,N
1629567455.0,286047000.7,N
1629567455.9,286047000.7,N
1629567475.8,286046998.1,N
1629567495.6,286047000.5,N
1629567515.4,286046999.7,N
1629567535.3,286047002.6,N
1629567555.1,286047000.0,N
1629567556.0,286047000.0,N
1629567575.8,286047000.0,N
1629567595.7,286047002.2,N
1629567615.5,286046999.8,N
1629567635.3,286047000.2,N
1629567655.2,286047000.2,N
1629567675.9,286047002.6,N
1629567695.7,286047002.8,N
1629567715.6,286047002.6,N
1629567735.4,286047002.4,N
1629567755.2,286046999.8,N
1629567775.1,286046999.8,N
1629567776.0,286046999.8,N
1629567795.8,286047002.8,N
1629567815.6,286047000.3,N
1629567835.5,286047002.4,N
1629567855.3,286046999.9,N
1629567875.1,286047000.0,N
1629567895.9,286047000.6,N
1629567915.7,286047000.5,N
1629567935.5,286047000.0,N
1629567955.4,286047000.6,N
1629567975.2,286046998.7,N
1629567995.0,286046998.9,N
1629567995.9,286046998.9,N
1629568015.8,286046999.1,N
1629568035.6,286046999.1,N
1629568055.4,286046996.9,N
1629568075.3,286046998.2,N
1629568095.1,286047000.7,N
1629568096.0,286047000.7,N
1629568115.8,286046998.5,N
1629568165.7,286046998.5,E
1629568175.6,286047000.6,N
1629568195.4,286047000.5,P
1629568215.3,286047001.2,P
1629568235.1,286047001.0,Y
1629568255.8,286046998.8,P
1629568275.7,286046998.7,N
1629568295.5,286046998.9,N
1629568315.3,286046997.0,Y
1629568335.2,286046998.7,P
1629568355.0,286046999.4,N
1629568355.9,286046999.4,N
1629568375.7,286046999.1,Y
1629568395.6,286046998.9,P
1629568415.4,286046998.5,P
1629568435.2,286047000.8,N
1629568455.1,286047000.8,N
1629568456.0,286047000.8,N
1629568475.8,286046998.9,N
1629568495.6,286046999.5,N
1629568515.5,286046999.2,N
1629568535.3,286046997.2,Y
1629568555.1,286046999.6,P
1629568575.9,286046998.8,P
1629568595.7,286046997.0,P
1629568615.5,286046997.4,N
1629568635.4,286046999.5,N
1629568655.2,286046998.8,N
1629568675.0,286046999.0,N
1629568675.9,286046999.0,N
1629568695.8,286046998.7,N
1629568715.6,286046998.7,N
1629568735.4,286047001.1,N
1629568755.3,286046998.2,N
1629568775.1,286046998.6,N
1629568795.8,286046996.6,Y
